TimeEDT,TemperatureF,Dew PointF,Humidity,Sea Level PressureIn,VisibilityMPH,Wind Direction,Wind SpeedMPH,Gust SpeedMPH,PrecipitationIn,Events,Conditions,WindDirDegrees,DateUTC
12:15 AM,42.8,23.0,46,30.23,10.0,NW,4.6,-,N/A,,Clear,310,2013-03-15 04:15:00
12:35 AM,41.0,23.0,49,30.22,10.0,NW,4.6,-,N/A,,Clear,310,2013-03-15 04:35:00
12:55 AM,39.2,23.0,52,30.22,10.0,NW,3.5,-,N/A,,Clear,310,2013-03-15 04:55:00
1:15 AM,37.4,23.0,56,30.22,10.0,NW,4.6,-,N/A,,Clear,310,2013-03-15 05:15:00
1:35 AM,37.4,24.8,60,30.21,10.0,NW,4.6,-,N/A,,Clear,310,2013-03-15 05:35:00
1:55 AM,37.4,24.8,60,30.22,10.0,WNW,5.8,-,N/A,,Clear,300,2013-03-15 05:55:00
2:15 AM,39.2,26.6,61,30.21,10.0,NW,6.9,-,N/A,,Clear,310,2013-03-15 06:15:00
2:35 AM,39.2,26.6,61,30.21,10.0,Calm,Calm,-,N/A,,Clear,0,2013-03-15 06:35:00
2:55 AM,39.2,26.6,61,30.21,10.0,Calm,Calm,-,N/A,,Clear,0,2013-03-15 06:55:00
3:15 AM,39.2,26.6,61,30.21,10.0,Calm,Calm,-,N/A,,Clear,0,2013-03-15 07:15:00
3:35 AM,37.4,26.6,65,30.20,10.0,Calm,Calm,-,N/A,,Clear,0,2013-03-15 07:35:00
3:55 AM,37.4,26.6,65,30.19,10.0,Calm,Calm,-,N/A,,Clear,0,2013-03-15 07:55:00
4:15 AM,37.4,26.6,65,30.19,10.0,Calm,Calm,-,N/A,,Clear,0,2013-03-15 08:15:00
4:35 AM,37.4,26.6,65,30.19,10.0,Calm,Calm,-,N/A,,Clear,0,2013-03-15 08:35:00
4:55 AM,37.4,28.4,70,30.19,10.0,WSW,3.5,-,N/A,,Clear,240,2013-03-15 08:55:00
5:15 AM,37.4,28.4,70,30.19,10.0,SW,3.5,-,N/A,,Clear,220,2013-03-15 09:15:00
5:35 AM,37.4,28.4,70,30.19,10.0,SSW,3.5,-,N/A,,Clear,200,2013-03-15 09:35:00
5:55 AM,35.6,28.4,75,30.19,10.0,SSW,4.6,-,N/A,,Clear,200,2013-03-15 09:55:00
6:15 AM,35.6,28.4,75,30.19,10.0,SW,3.5,-,N/A,,Clear,220,2013-03-15 10:15:00
6:35 AM,35.6,28.4,75,30.20,10.0,Calm,Calm,-,N/A,,Clear,0,2013-03-15 10:35:00
6:55 AM,33.8,28.4,81,30.20,10.0,Calm,Calm,-,N/A,,Clear,0,2013-03-15 10:55:00
7:15 AM,33.8,28.4,81,30.20,10.0,Calm,Calm,-,N/A,,Clear,0,2013-03-15 11:15:00
7:35 AM,32.0,28.4,87,30.20,10.0,Calm,Calm,-,N/A,,Clear,0,2013-03-15 11:35:00
7:55 AM,32.0,28.4,87,30.20,10.0,Calm,Calm,-,N/A,,Clear,0,2013-03-15 11:55:00
8:15 AM,32.0,28.4,87,30.20,10.0,Calm,Calm,-,N/A,,Clear,0,2013-03-15 12:15:00
8:35 AM,32.0,28.4,87,30.20,10.0,Calm,Calm,-,N/A,,Clear,0,2013-03-15 12:35:00
8:55 AM,33.8,30.2,87,30.20,10.0,Calm,Calm,-,N/A,,Clear,0,2013-03-15 12:55:00
9:15 AM,35.6,30.2,81,30.20,10.0,Calm,Calm,-,N/A,,Clear,0,2013-03-15 13:15:00
9:35 AM,39.2,30.2,70,30.20,10.0,Calm,Calm,-,N/A,,Clear,0,2013-03-15 13:35:00
9:55 AM,42.8,28.4,57,30.20,10.0,Calm,Calm,-,N/A,,Clear,0,2013-03-15 13:55:00
10:15 AM,44.6,28.4,53,30.20,10.0,Calm,Calm,-,N/A,,Clear,0,2013-03-15 14:15:00
10:35 AM,46.4,23.0,40,30.19,10.0,SSE,3.5,-,N/A,,Clear,150,2013-03-15 14:35:00
10:55 AM,48.2,23.0,37,30.19,10.0,SSW,3.5,-,N/A,,Clear,200,2013-03-15 14:55:00
11:55 AM,59.0,15.8,19,30.16,10.0,West,3.5,-,N/A,,Clear,270,2013-03-15 15:55:00
12:15 PM,60.8,15.8,17,30.16,10.0,West,6.9,-,N/A,,Clear,280,2013-03-15 16:15:00
12:35 PM,62.6,14.0,15,30.15,10.0,WSW,4.6,-,N/A,,Clear,250,2013-03-15 16:35:00
12:55 PM,62.6,15.8,16,30.13,10.0,West,5.8,-,N/A,,Clear,280,2013-03-15 16:55:00
1:15 PM,68.0,17.6,15,30.13,10.0,West,9.2,16.1,N/A,,Clear,260,2013-03-15 17:15:00
1:35 PM,68.0,19.4,16,30.12,10.0,WSW,12.7,18.4,N/A,,Clear,240,2013-03-15 17:35:00
1:55 PM,68.0,19.4,16,30.11,10.0,West,6.9,-,N/A,,Clear,260,2013-03-15 17:55:00
2:15 PM,69.8,19.4,15,30.10,10.0,NW,6.9,17.3,N/A,,Clear,310,2013-03-15 18:15:00
2:35 PM,71.6,19.4,14,30.08,10.0,West,5.8,16.1,N/A,,Clear,280,2013-03-15 18:35:00
2:55 PM,71.6,17.6,13,30.07,10.0,SW,10.4,18.4,N/A,,Clear,230,2013-03-15 18:55:00
3:15 PM,71.6,17.6,13,30.05,10.0,WNW,11.5,20.7,N/A,,Clear,290,2013-03-15 19:15:00
3:35 PM,71.6,15.8,12,30.04,10.0,West,5.8,19.6,N/A,,Clear,260,2013-03-15 19:35:00
3:55 PM,73.4,14.0,10,30.03,10.0,WSW,9.2,-,N/A,,Clear,250,2013-03-15 19:55:00
4:15 PM,73.4,14.0,10,30.02,10.0,West,10.4,24.2,N/A,,Clear,260,2013-03-15 20:15:00
4:35 PM,73.4,15.8,11,30.02,10.0,West,4.6,24.2,N/A,,Clear,260,2013-03-15 20:35:00
4:55 PM,73.4,14.0,10,30.01,10.0,WNW,11.5,17.3,N/A,,Clear,300,2013-03-15 20:55:00
5:15 PM,73.4,14.0,10,30.01,10.0,SW,11.5,16.1,N/A,,Clear,230,2013-03-15 21:15:00
5:35 PM,73.4,15.8,11,30.00,10.0,WSW,12.7,17.3,N/A,,Scattered Clouds,250,2013-03-15 21:35:00
5:55 PM,71.6,17.6,13,30.00,10.0,West,10.4,18.4,N/A,,Clear,270,2013-03-15 21:55:00
6:15 PM,71.6,19.4,14,30.00,10.0,WSW,9.2,-,N/A,,Clear,250,2013-03-15 22:15:00
6:35 PM,69.8,23.0,17,30.00,10.0,West,5.8,-,N/A,,Clear,270,2013-03-15 22:35:00
6:55 PM,69.8,23.0,17,30.00,10.0,WSW,6.9,-,N/A,,Clear,250,2013-03-15 22:55:00
7:15 PM,68.0,26.6,21,30.00,10.0,West,4.6,-,N/A,,Clear,260,2013-03-15 23:15:00
7:35 PM,68.0,26.6,21,30.00,10.0,West,4.6,-,N/A,,Clear,260,2013-03-15 23:35:00
7:55 PM,68.0,26.6,21,30.00,10.0,WSW,3.5,-,N/A,,Clear,250,2013-03-15 23:55:00
8:15 PM,66.2,28.4,24,30.00,10.0,WSW,4.6,-,N/A,,Clear,240,2013-03-16 00:15:00
8:35 PM,64.4,28.4,26,30.00,10.0,WSW,3.5,-,N/A,,Clear,250,2013-03-16 00:35:00
8:55 PM,64.4,26.6,24,30.00,10.0,WSW,4.6,-,N/A,,Clear,240,2013-03-16 00:55:00
9:15 PM,64.4,26.6,24,30.01,10.0,WSW,5.8,-,N/A,,Clear,250,2013-03-16 01:15:00
9:35 PM,64.4,26.6,24,30.01,10.0,SW,5.8,-,N/A,,Clear,230,2013-03-16 01:35:00
9:55 PM,64.4,26.6,24,30.01,10.0,WSW,5.8,-,N/A,,Clear,240,2013-03-16 01:55:00
10:15 PM,64.4,26.6,24,30.01,10.0,SW,5.8,-,N/A,,Clear,230,2013-03-16 02:15:00
10:55 PM,62.6,28.4,27,30.01,10.0,SW,8.1,-,N/A,,Clear,230,2013-03-16 02:55:00
11:15 PM,62.6,28.4,27,30.01,10.0,SW,6.9,-,N/A,,Clear,230,2013-03-16 03:15:00
11:35 PM,62.6,30.2,30,30.01,10.0,SW,6.9,-,N/A,,Clear,220,2013-03-16 03:35:00
11:55 PM,60.8,30.2,31,30.00,10.0,SW,4.6,-,N/A,,Clear,230,2013-03-16 03:55:00